Location: Pella
(41.4080°N, 92.9160°W)
Time: 20:38:48
(UTC-05:00)

Daily predictions for brighter satellites

Satellite Brightness Start Highest point End
(mag) Time Altitude Azimuth Time Altitude Azimuth Time Altitude Azimuth
H-2A R/B 4.3 20:43:17 10° SSW 20:46:48 25° SSE 20:57:45 10° ESE
TIMED 4.5 20:55:59 10° S 21:00:19 73° ESE 21:04:42 10° NNE
CZ-4 DEB 2.9 20:57:21 10° SSE 21:00:27 56° ENE 21:03:34 10° N
Cosmos 1242 Rocket 4.2 20:58:52 10° NNE 21:01:36 19° ENE 21:04:20 10° ESE
Cosmos 1610 Rocket 4.5 20:56:38 10° S 21:02:46 74° E 21:09:01 10° N
Cosmos 1174 3.3 21:01:00 10° NW 21:04:10 71° WSW 21:07:06 10° SSE
Resurs 01 Rocket 4.2 21:01:35 10° SW 21:04:57 21° W 21:08:21 10° NW
USA 186 2.4 21:01:59 10° S 21:05:08 60° W 21:08:27 10° NNW
Cosmos 676 Rocket 4.0 21:00:52 10° NNW 21:06:06 81° ENE 21:11:20 10° SSE
ALOS 3.0 21:01:39 10° S 21:06:14 57° W 21:10:52 10° NNW
COS B Rocket 4.0 21:03:29 10° NNE 21:06:57 31° E 21:10:05 10° SSE
Cosmos 1862 3.6 21:03:36 10° SSE 21:07:30 47° E 21:11:26 10° NNE
Sich 1 Rocket 3.6 21:03:20 10° S 21:07:54 76° E 21:12:29 10° N
Cosmos 1954 Rocket 4.1 21:03:20 10° NNW 21:08:33 66° ENE 21:13:45 10° SSE
Coronas F rocket 4.2 21:07:39 10° SW 21:09:48 22° WNW 21:11:58 10° NNW
Nadezhda 3 Rocket 4.2 21:03:53 10° N 21:10:11 60° E 21:16:27 10° SSE
GPS 2-05 Rocket1 3.9 21:07:08 10° WSW 21:10:32 33° S 21:13:49 10° ESE
OAO 3 Rocket 4.2 21:06:42 10° SW 21:10:57 29° SSE 21:15:12 10° ESE
DNEPR-1 R/B 4.3 21:06:36 10° NNW 21:11:56 51° NE 21:16:17 11° SE
Cosmos 1975 Rocket 3.8 21:08:01 10° N 21:11:58 34° ENE 21:15:56 10° SE
Lacrosse 5 rocket 3.1 21:11:42 10° SE 21:12:18 10° ESE 21:12:54 10° ESE
BREEZE-M DEB (TANK) 3.7 21:11:02 10° W 21:13:22 43° NNW 21:18:10 10° ENE
ATLAS 5 CENTAUR R/B 4.1 21:08:30 10° NW 21:13:42 30° WSW 21:19:10 10° S
Cosmos 1408 2.8 21:11:36 10° SSE 21:15:06 47° E 21:18:37 10° NNE
SJ-11-01 4.3 21:10:52 10° SSE 21:15:35 71° ENE 21:20:20 10° N
H-2A R/B 3.9 21:13:36 10° S 21:17:07 41° W 21:20:42 10° NNW
Meteor 1-27 Rocket 3.7 21:13:46 10° N 21:19:20 82° E 21:24:51 10° SSE
Cosmos 1378 Rocket 3.5 21:15:43 10° N 21:20:01 66° E 21:24:19 10° SSE
Cosmos 1733 Rocket 4.4 21:17:00 10° SSW 21:21:11 42° WNW 21:25:22 10° N
Cosmos 1908 Rocket 3.5 21:17:39 10° S 21:22:04 85° E 21:26:32 10° N
Cosmos 1741 Rocket 4.5 21:21:41 10° N 21:26:44 46° ENE 21:31:03 14° SE
Cosmos 1782 4.2 21:26:37 10° NNW 21:30:25 40° W 21:34:13 10° SSW
Cosmos 1825 2.3 21:34:56 10° S 21:38:44 80° W 21:42:34 10° N
Cosmos 614 Rocket 4.2 21:34:23 10° N 21:39:22 54° ENE 21:43:08 17° SE
SEDSat Delta rocket 4.4 21:36:45 10° SW 21:39:59 20° S 21:41:22 17° SSE
Envisat 3.0 21:35:20 10° SSE 21:40:24 81° ENE 21:45:30 10° N
Cosmos 1833 Rocket 3.4 21:36:03 10° N 21:41:17 38° ENE 21:45:06 17° ESE
deb Chang Zheng 4 3.5 21:37:13 10° NNE 21:41:39 75° ESE 21:46:06 10° S
Cosmos 2341 Rocket 4.0 21:35:49 10° S 21:42:07 84° E 21:48:23 10° N
SL-8 Rocket 4.2 21:39:09 10° SSE 21:45:10 52° E 21:51:12 10° NNE
Cosmos 962 Rocket 4.5 21:40:30 10° S 21:46:40 90° E 21:52:58 10° N
Terra 3.9 21:44:32 10° E 21:46:41 14° ENE 21:49:01 10° NNE
ISS -1.2 21:45:13 10° W 21:48:08 29° NNW 21:51:03 10° NE
USA 245 4.3 21:46:35 20° ESE 21:48:23 31° ENE 21:52:19 10° N
ERS-1 Rocket 3.6 21:44:24 10° S 21:49:21 56° W 21:54:19 10° NNW
Cosmos 2278 Rocket 2.7 21:43:48 10° SW 21:49:24 63° WNW 21:55:04 10° NNE
H-2A R/B 2.0 21:46:48 12° SSE 21:50:43 82° WSW 21:54:56 10° NNW
Cosmos 1420 Rocket 4.1 21:48:24 10° SSW 21:53:38 82° WNW 21:58:53 10° NNE
Okean 3 3.8 21:50:25 10° NNW 21:54:39 64° W 21:58:47 10° S
Cosmos 1939 Rocket 3.4 21:51:01 10° S 21:54:49 55° W 21:58:44 10° NNW
Abrixas 2.4 21:53:05 10° SW 21:56:04 58° SSE 21:58:22 16° ENE
Cosmos 1140 Rocket 3.7 21:51:15 10° NNW 21:56:22 70° WSW 22:00:42 15° S
COSMOS 2487 3.9 21:53:31 10° NW 21:56:50 35° WSW 22:00:03 10° SSW
APEX 3.8 21:55:06 10° SSW 21:59:05 76° WNW 22:04:23 10° NNE
Timation 2 Rocket 3.9 21:53:28 10° NNW 21:59:27 78° WSW 22:04:04 18° SSE
Cosmos 2151 Rocket 4.0 21:56:55 21° SSE 21:59:37 45° E 22:03:56 10° NNE
Cosmos 1295 Rocket 4.5 21:54:26 10° S 22:00:45 84° E 22:07:02 10° N
Cosmos 1238 Rocket 3.7 21:58:28 10° NNW 22:01:48 44° W 22:05:44 10° SSW
CZ-4B R/B 3.7 22:01:04 10° NNE 22:05:45 44° E 22:08:19 24° SSE
SPOT 5 3.2 22:02:47 16° S 22:07:05 82° WSW 22:12:30 10° NNW
Cosmos 2082 Rocket 2.2 22:03:43 10° NNW 22:09:26 80° ENE 22:12:49 25° SSE
NOSS 8 (F) 4.3 22:09:32 10° SSW 22:13:00 73° ESE 22:16:40 10° NE
Okean 1 Rocket 4.4 22:13:53 23° E 22:14:07 23° E 22:17:38 10° NE
Cosmos 1812 3.6 22:11:08 10° NNE 22:14:37 31° ENE 22:15:11 29° E
Lacrosse 5 2.3 22:13:30 10° SSW 22:18:09 37° SE 22:22:48 10° ENE
NOSS 1 (D) 4.4 22:18:37 10° NW 22:21:40 85° ENE 22:22:00 68° SE
H-2A R/B 2.9 22:20:50 27° ESE 22:22:52 37° ENE 22:27:40 10° N
UNK 4.4 22:18:12 10° NNE 22:24:24 88° ESE 22:30:15 10° SSW
Meteor 1-18 Rocket 4.3 22:19:38 10° N 22:25:34 71° E 22:28:36 30° SSE
Cosmos 2366 rocket 3.9 22:22:11 16° S 22:27:21 81° E 22:33:43 10° N
Cosmos 2297 4.3 22:22:34 10° SW 22:28:11 60° WNW 22:33:53 10° NNE
MetOp-B 4.4 22:25:01 21° S 22:28:39 64° WSW 22:33:59 10° NNW
NOAA 11 4.1 22:28:28 31° SSE 22:31:15 82° ENE 22:36:47 10° NNW
Meteor 1-14 Rocket 4.5 22:26:57 10° SSW 22:32:35 68° W 22:38:09 10° N
Okean 1-7 Rocket 4.4 22:30:21 10° N 22:34:26 34° ENE 22:34:56 33° E
SPOT 1/Viking Rocket 3.6 22:35:56 30° S 22:38:33 74° WSW 22:43:47 10° NNW
ASTEX 1 4.1 22:39:37 10° NNE 22:44:10 35° E 22:44:25 35° E
YAOGAN 6 4.0 22:45:16 25° SW 22:46:26 31° W 22:49:37 10° NNW
CARTOSAT-1 3.7 22:49:49 51° E 22:50:15 53° ENE 22:54:27 10° N
Lacrosse 5 rocket 1.0 22:47:06 10° SW 22:51:01 85° NW 22:54:48 10° NE
USA 229 DEB 4.0 22:44:07 10° NW 22:51:08 62° WSW 22:54:27 33° S
USA 229 4.0 22:44:13 10° NW 22:51:14 63° WSW 22:54:33 33° S
ARGOS 3.4 22:50:37 33° S 22:53:00 63° W 22:58:19 10° NNW
Meteor 2-19 Rocket 4.4 22:49:34 26° S 22:53:12 86° W 22:59:20 10° N
OAO 3 Rocket 3.9 22:49:23 10° WSW 22:53:20 38° SSW 22:53:20 38° SSW
SL-08 RB Rocket 3.9 22:53:46 43° SSW 22:55:08 66° WSW 22:59:47 10° NNW
Cosmos 2369 Rocket 3.1 22:55:51 30° E 22:55:51 30° E 23:00:05 10° NE
Meteor 1-11 Rocket 4.1 22:56:17 43° ESE 22:57:11 46° E 23:02:39 10° NNE
CZ-4 R/B 3.9 22:52:46 10° N 22:57:25 74° WNW 22:59:17 36° SSW
AVUM R/B 4.5 22:54:12 10° NW 22:57:24 36° WSW 22:57:24 36° WSW
Cosmos 1536 Rocket 4.5 22:58:31 10° NNW 23:02:48 45° W 23:04:13 33° SW
Landsat 7 3.9 23:07:13 55° SSW 23:08:08 71° WSW 23:12:54 10° NNW
IGS 5A 3.4 23:09:05 74° ENE 23:09:05 74° ENE 23:13:10 10° N
NOSS 3-1 (A) 4.2 23:02:00 10° NNW 23:09:29 63° NE 23:12:56 36° ESE
Gbstr 26 Del rocket 2.9 23:04:50 10° NW 23:09:51 87° NNE 23:10:03 82° ESE
Cosmos 1331 Rocket 4.3 23:07:16 24° SW 23:10:22 62° WNW 23:15:29 10° NNE
CZ-4C R/B 3.5 23:11:59 63° WSW 23:12:04 64° WSW 23:16:14 10° NNW
DELTA 2 DEB (DPAF) 4.3 23:12:14 59° SW 23:12:45 64° WSW 23:17:13 10° NNW
Cosmos 1503 Rocket 4.3 23:10:43 10° N 23:15:50 50° ENE 23:16:23 48° E
Cosmos 1400 Rocket 3.6 23:19:54 45° NE 23:19:54 45° NE 23:23:01 10° NNE
Cosmos 1943 Rocket 4.0 23:21:41 17° ENE 23:21:41 17° ENE 23:23:43 10° NE
Terra 1.8 23:23:26 67° SW 23:23:49 71° WSW 23:28:35 10° NNW
Cosmos 1536 4.0 23:25:09 35° NE 23:25:09 35° NE 23:27:43 10° NNE
Meteor 1-19 Rocket 4.2 23:18:27 10° N 23:24:18 72° E 23:25:07 62° SE
Cosmos 1833 Rocket 4.0 23:20:13 10° NW 23:25:03 30° WSW 23:26:48 25° SW
ISS -0.2 23:23:31 10° NW 23:25:21 14° N 23:27:10 10° NNE
Spot 2 4.5 23:24:25 10° NNE 23:27:44 51° NE 23:27:44 51° NE
Cosmos 1025 Rocket 3.3 23:25:03 10° N 23:28:53 60° NE 23:28:53 60° NE
ATLAS 2AS CENTAUR R/B 4.0 23:22:44 10° NNW 23:30:16 39° NE 23:34:22 24° E
DMSP B5D2-2 4.2 23:27:45 10° N 23:32:58 70° WNW 23:34:07 52° SW
Meteor 2-16 Rocket 4.4 23:32:56 58° ESE 23:33:27 60° E 23:39:26 10° NNE
Meteor 2-21 Rocket 4.3 23:33:03 63° SSE 23:33:59 74° E 23:40:12 10° NNE
NOSS 3-1 (C) 4.0 23:30:24 10° NW 23:38:01 79° WSW 23:40:24 51° SSE
Cosmos 1821 Rocket 3.9 23:42:00 60° SSW 23:43:16 86° W 23:49:30 10° N
Meteor 2-21 4.5 23:42:20 54° SSW 23:43:47 77° W 23:50:02 10° N
Cosmos 1605 Rocket 4.1 23:43:43 56° ESE 23:44:10 58° E 23:50:26 10° NNE
USA 234 3.1 23:37:47 10° NE 23:44:18 67° SE 23:45:23 58° S
Spot 4 4.2 23:45:42 57° WSW 23:45:43 57° W 23:50:31 10° NNW
Cosmos 1934 Rocket 3.8 23:49:38 71° S 23:50:21 90° WNW 23:56:27 10° N
Cosmos 1354 Rocket 4.0 23:45:39 10° NNW 23:50:52 77° W 23:50:52 77° W
Cosmos 2082 Rocket 4.4 23:50:02 10° WNW 23:52:43 14° W 23:54:41 12° WSW
ALOS 2 4.2 23:56:39 26° NE 23:56:39 26° NE 23:59:36 10° N
